W0QQ Weather Reports


Display with metric or nautical units.
time (UTC)temp
F
wind
direction
speed
MPH
gust
MPH
rain 1hr
in
rain 24hr
in
rain mn
in
humidity
%
barometer
mb
20260507224533 69 11 4.0 16.0 0.00 0.00 0.00 49 1011.0
20260507223106 69 245 5.0 17.0 0.00 0.00 0.00 47 1011.1
20260507221535 69 225 6.0 14.0 0.00 0.00 0.00 49 1011.2
20260507220110 69 255 5.0 14.0 0.00 0.00 0.00 50 1011.3
20260507214521 69 297 4.0 21.0 0.00 0.00 0.00 49 1011.4
20260507213109 70 248 6.0 20.0 0.00 0.00 0.00 48 1011.5
20260507211518 71 201 4.0 17.0 0.00 0.00 0.00 46 1011.8
20260507210121 70 11 7.0 17.0 0.00 0.00 0.00 50 1012.0
20260507204523 70 11 4.0 17.0 0.00 0.00 0.00 49 1012.3
20260507203114 70 11 6.0 17.0 0.00 0.00 0.00 49 1012.6
20260507201534 69 11 7.0 18.0 0.00 0.00 0.00 53 1013.0
20260507200118 70 208 5.0 22.0 0.00 0.00 0.00 51 1013.5
20260507194532 70 295 5.0 18.0 0.00 0.00 0.00 50 1013.5
20260507193134 69 11 5.0 19.0 0.00 0.00 0.00 56 1013.7
20260507191545 68 208 7.0 20.0 0.00 0.00 0.00 55 1013.7
20260507190130 67 11 5.0 27.0 0.00 0.00 0.00 56 1014.0
20260507184543 66 11 6.0 20.0 0.00 0.00 0.00 57 1014.2
20260507183004 66 11 7.0 19.0 0.00 0.00 0.00 55 1014.4
20260507181553 65 280 7.0 21.0 0.00 0.00 0.00 58 1014.6
20260507180008 66 270 4.0 20.0 0.00 0.00 0.00 57 1014.9
20260507174610 66 11 6.0 18.0 0.00 0.00 0.00 56 1015.1
20260507173019 65 11 11.0 23.0 0.00 0.00 0.00 56 1015.5
20260507171609 66 11 8.0 19.0 0.00 0.00 0.00 60 1015.5
20260507170011 65 11 9.0 21.0 0.00 0.00 0.00 57 1015.7
20260507163016 62 11 6.0 23.0 0.00 0.00 0.00 60 1016.2
20260507161617 63 11 7.0 23.0 0.00 0.00 0.00 59 1016.3
20260507160030 63 11 6.0 29.0 0.00 0.00 0.00 60 1016.3
20260507154615 62 253 4.0 17.0 0.00 0.00 0.00 63 1016.5
20260507153032 62 11 4.0 17.0 0.00 0.00 0.00 62 1016.6
20260507151611 61 216 2.0 15.0 0.00 0.00 0.00 66 1016.9
20260507150031 60 268 7.0 14.0 0.00 0.00 0.00 65 1017.2
20260507144615 59 11 4.0 14.0 0.00 0.00 0.00 69 1017.2
20260507143034 57 11 4.0 14.0 0.00 0.00 0.00 70 1017.1
20260507141625 56 201 3.0 14.0 0.00 0.00 0.00 73 1017.0
20260507140042 54 11 3.0 12.0 0.00 0.00 0.00 76 1017.2
20260507134632 52 11 2.0 9.0 0.00 0.00 0.00 79 1017.2
20260507133051 50 11 3.0 9.0 0.00 0.00 0.00 81 1017.2
20260507131505 49 11 3.0 12.0 0.00 0.00 0.00 82 1017.2
20260507130053 48 11 2.0 6.0 0.00 0.00 0.00 83 1017.3
20260507124505 47 227 0.0 6.0 0.00 0.00 0.00 83 1017.5
20260507123054 46 11 1.0 8.0 0.00 0.00 0.00 83 1017.5
20260507121511 45 11 2.0 9.0 0.00 0.00 0.00 82 1017.5
20260507120103 44 11 4.0 8.0 0.00 0.00 0.00 81 1017.5
20260507114515 44 11 2.0 8.0 0.00 0.00 0.00 80 1017.3
20260507113129 44 11 1.0 6.0 0.00 0.00 0.00 80 1017.4
20260507111558 44 11 1.0 6.0 0.00 0.00 0.00 79 1017.3
20260507110005 44 11 3.0 8.0 0.00 0.00 0.00 78 1017.1
20260507104543 44 11 0.0 5.0 0.00 0.00 0.00 76 1017.2
20260507103129 44 11 1.0 8.0 0.00 0.00 0.00 76 1017.4
20260507101553 44 11 1.0 8.0 0.00 0.00 0.00 75 1017.2
20260507100131 44 11 1.0 8.0 0.00 0.00 0.00 74 1017.2
20260507094542 45 11 2.0 8.0 0.00 0.00 0.00 74 1017.3
20260507093134 44 11 2.0 6.0 0.00 0.00 0.00 73 1017.4
20260507091541 44 11 2.0 9.0 0.00 0.00 0.00 74 1017.5
20260507090128 45 228 0.0 6.0 0.00 0.00 0.00 74 1017.6
20260507084548 45 11 1.0 5.0 0.00 0.00 0.00 74 1017.6
20260507083002 45 11 1.0 5.0 0.00 0.00 0.00 74 1017.7
20260507081553 45 11 0.0 5.0 0.00 0.00 0.00 73 1017.7
20260507080012 45 11 1.0 5.0 0.00 0.00 0.00 73 1017.6
20260507074558 45 11 3.0 9.0 0.00 0.00 0.00 73 1017.6
20260507073013 46 11 0.0 5.0 0.00 0.00 0.00 71 1017.7
20260507071610 46 11 0.0 3.0 0.00 0.00 0.00 69 1017.9
20260507070025 47 11 0.0 3.0 0.00 0.00 0.00 68 1018.1
20260507064626 48 11 0.0 3.0 0.00 0.00 0.00 67 1018.1
20260507063031 48 11 0.0 3.0 0.00 0.00 0.00 66 1018.2
20260507061618 49 243 0.0 6.0 0.00 0.00 0.00 65 1018.3
20260507060036 49 11 1.0 5.0 0.00 0.00 0.00 63 1018.4
20260507054620 49 11 1.0 6.0 0.00 0.00 0.00 63 1018.3
20260507053039 49 11 2.0 6.0 0.00 0.00 0.00 63 1018.4
20260507051634 49 11 2.0 5.0 0.00 0.00 0.00 62 1018.3
20260507050053 49 11 2.0 9.0 0.00 0.00 0.00 62 1018.3
20260507044517 49 11 2.0 9.0 0.00 0.00 0.00 62 1018.4
20260507043104 49 11 2.0 5.0 0.00 0.00 0.00 61 1018.4
20260507041539 50 11 3.0 8.0 0.00 0.00 0.00 60 1018.4
20260507040121 49 11 2.0 6.0 0.00 0.00 0.00 59 1018.4
20260507034545 49 11 2.0 6.0 0.00 0.00 0.00 58 1018.5
20260507033132 49 24 1.0 3.0 0.00 0.00 0.00 59 1018.6
20260507031552 50 20 0.0 1.0 0.00 0.00 0.00 59 1018.4
20260507030004 50 20 0.0 0.0 0.00 0.00 0.00 56 1018.4
20260507024607 50 20 0.0 0.0 0.00 0.00 0.00 54 1018.5
20260507023018 50 20 0.0 0.0 0.00 0.00 0.00 57 1018.3
20260507021614 51 20 0.0 0.0 0.00 0.00 0.00 58 1018.2
20260507020027 53 20 0.0 0.0 0.00 0.00 0.00 51 1018.0
20260507014610 53 20 0.0 1.0 0.00 0.00 0.00 50 1017.9
20260507013039 54 20 0.0 1.0 0.00 0.00 0.00 49 1017.9
20260507011623 55 20 0.0 0.0 0.00 0.00 0.00 47 1017.8
20260507010042 56 20 0.0 1.0 0.00 0.00 0.00 46 1017.6
20260507004501 57 20 0.0 4.0 0.00 0.00 0.00 43 1017.6
20260507003048 57 11 1.0 4.0 0.00 0.00 0.00 42 1017.6
20260507001505 58 307 2.0 9.0 0.00 0.00 0.00 42 1017.7
20260507000053 58 33 0.0 5.0 0.00 0.00 0.00 42 1017.5
20260506234514 58 30 1.0 10.0 0.00 0.00 0.00 43 1017.6
20260506233123 58 11 2.0 10.0 0.00 0.00 0.00 40 1017.5
20260506231544 59 357 4.0 13.0 0.00 0.00 0.00 39 1017.7
20260506230129 59 351 1.0 9.0 0.00 0.00 0.00 41 1017.7